Stations météo

réclame
Mon MeteoGroup
Spa/La Sauveniere, Belgique (6490): Température de l'air & dewpoint: 17.07.2018 09:00:00 - 23.07.2018 09:00:00 (CEST)Spa/La Sauveniere, Belgique (6490): Vitesse du vent & gusts: 17.07.2018 09:00:00 - 23.07.2018 09:00:00 (CEST)Spa/La Sauveniere, Belgique (6490): Direction du vent: 17.07.2018 09:00:00 - 23.07.2018 09:00:00 (CEST)Spa/La Sauveniere, Belgique (6490): reduced air pressure: 17.07.2018 09:00:00 - 23.07.2018 09:00:00 (CEST)Spa/La Sauveniere, Belgique (6490): visibility: 17.07.2018 09:00:00 - 23.07.2018 09:00:00 (CEST)
Date & Time tt [°C] td [°C] ff [km/h] ff [knt] fx [km/h] fx [knt] dd ppp [hPa] vv [km]
23.07.2018 09:00:00 19,7 14,8 4 2 7 4 SW 1017,8 26
23.07.2018 08:00:00 18,3 13,5 4 2 - - SW 1018,0 27
23.07.2018 07:00:00 15,8 12,0 7 4 7 4 S 1018,3 30
23.07.2018 06:00:00 15,2 11,0 4 2 7 4 SSE 1018,2 10
23.07.2018 05:00:00 14,4 9,7 4 2 - - SSE 1018,2 14
23.07.2018 04:00:00 14,8 9,7 0 0 4 2 N 1018,1 28
23.07.2018 03:00:00 15,9 9,7 4 2 4 2 SW 1017,8 35
23.07.2018 02:00:00 16,2 9,7 0 0 - - N 1018,0 40
23.07.2018 01:00:00 16,6 9,5 4 2 4 2 ESE 1018,0 35
23.07.2018 00:00:00 17,9 9,9 4 2 7 4 ESE 1017,5 35
22.07.2018 23:00:00 18,8 9,7 4 2 - - - 1016,9 30
22.07.2018 22:00:00 18,7 9,4 4 2 7 4 ESE 1016,3 35
22.07.2018 21:00:00 20,7 10,4 4 2 7 4 SE 1015,5 30
22.07.2018 20:00:00 21,4 10,2 4 2 - - NE 1015,1 35
22.07.2018 19:00:00 22,5 10,5 11 6 18 10 N 1014,7 30
22.07.2018 18:00:00 22,9 9,2 11 6 22 12 NNW 1014,8 29
22.07.2018 17:00:00 23,7 8,5 11 6 - - N 1014,7 35
22.07.2018 16:00:00 23,8 7,2 7 4 25 14 N 1014,8 30
22.07.2018 15:00:00 23,7 8,1 7 4 22 12 N 1014,8 28
22.07.2018 14:00:00 22,8 7,6 11 6 - - N 1015,2 29
22.07.2018 13:00:00 21,6 7,1 7 4 22 12 N 1015,7 24
22.07.2018 12:00:00 20,6 8,2 11 6 22 12 N 1015,8 30
22.07.2018 11:00:00 18,7 8,8 11 6 - - NNW 1015,9 30
22.07.2018 10:00:00 17,2 9,2 11 6 14 8 WNW 1016,0 27
22.07.2018 09:00:00 15,2 9,5 7 4 14 8 NNW 1016,2 19
22.07.2018 08:00:00 14,4 9,4 4 2 - - WNW 1016,0 20
22.07.2018 07:00:00 13,2 7,9 4 2 7 4 W 1015,7 22
22.07.2018 06:00:00 13,4 7,9 4 2 7 4 WSW 1015,5 22
22.07.2018 05:00:00 13,7 7,9 4 2 - - W 1015,3 26
22.07.2018 04:00:00 13,7 7,7 4 2 11 6 SW 1015,1 30
22.07.2018 03:00:00 15,2 8,6 7 4 11 6 WNW 1014,9 30
22.07.2018 02:00:00 15,3 8,4 0 0 - - N 1014,9 35
22.07.2018 01:00:00 16,6 9,1 4 2 11 6 NNW 1014,5 35
22.07.2018 00:00:00 17,5 9,9 4 2 14 8 NNW 1014,1 30
21.07.2018 23:00:00 18,8 10,4 7 4 - - W 1013,6 35
21.07.2018 22:00:00 19,4 10,9 7 4 11 6 WSW 1013,1 35
21.07.2018 21:00:00 19,7 10,8 11 6 22 12 SW 1012,6 30
21.07.2018 20:00:00 19,7 11,2 11 6 - - S 1012,3 29
21.07.2018 19:00:00 20,9 10,9 14 8 25 14 SSE 1011,9 28
21.07.2018 18:00:00 23,3 10,3 7 4 22 12 NW 1011,2 35
21.07.2018 17:00:00 24,3 10,1 11 6 - - NNW 1011,0 28
21.07.2018 16:00:00 23,8 10,3 14 8 25 14 NNW 1010,9 24
21.07.2018 15:00:00 23,5 9,6 11 6 22 12 W 1011,2 30
21.07.2018 14:00:00 23,5 9,8 14 8 - - N 1011,2 29
21.07.2018 13:00:00 22,7 9,6 7 4 18 10 - 1011,3 23
21.07.2018 12:00:00 21,4 9,9 7 4 14 8 - 1011,6 24
21.07.2018 11:00:00 20,0 9,9 7 4 - - WNW 1011,7 21
21.07.2018 10:00:00 18,2 10,4 7 4 14 8 NW 1012,1 20
21.07.2018 09:00:00 17,9 10,2 4 2 7 4 NNW 1011,8 25
21.07.2018 08:00:00 18,3 11,7 4 2 - - NW 1011,3 28
21.07.2018 07:00:00 14,6 8,4 4 2 7 4 SE 1011,7 26
21.07.2018 06:00:00 13,2 7,1 4 2 7 4 SE 1011,9 23
21.07.2018 05:00:00 14,4 7,4 4 2 - - ESE 1011,7 29
21.07.2018 04:00:00 14,2 7,5 4 2 7 4 SSE 1012,1 30
21.07.2018 03:00:00 16,1 8,3 4 2 7 4 ESE 1012,1 35
21.07.2018 02:00:00 16,4 8,2 4 2 - - E 1012,1 29
21.07.2018 01:00:00 16,1 7,8 4 2 7 4 E 1012,2 30
21.07.2018 00:00:00 16,7 7,7 0 0 4 2 N 1012,2 28
20.07.2018 23:00:00 18,0 7,9 0 0 - - N 1012,3 30
20.07.2018 22:00:00 18,8 7,6 4 2 14 8 NW 1012,4 35
20.07.2018 21:00:00 19,4 8,1 7 4 14 8 NW 1012,1 30
20.07.2018 20:00:00 20,7 8,1 7 4 - - NNW 1011,9 40
20.07.2018 19:00:00 21,5 10,7 7 4 14 8 NNE 1011,9 35
20.07.2018 18:00:00 20,9 10,0 7 4 22 12 WNW 1012,5 28
20.07.2018 17:00:00 22,7 9,3 11 6 - - NW 1012,1 30
20.07.2018 16:00:00 24,1 10,4 7 4 25 14 NNW 1012,1 26
20.07.2018 15:00:00 25,1 10,6 11 6 22 12 N 1012,1 27
20.07.2018 14:00:00 24,2 10,4 11 6 - - NNW 1012,7 23
20.07.2018 13:00:00 23,9 10,7 7 4 18 10 - 1013,2 20
20.07.2018 12:00:00 22,6 10,0 11 6 18 10 N 1013,7 27
20.07.2018 11:00:00 21,5 9,6 7 4 - - - 1014,0 23
20.07.2018 10:00:00 20,9 13,5 4 2 11 6 N 1014,1 18
20.07.2018 09:00:00 17,9 11,4 0 0 7 4 N 1014,9 25
20.07.2018 08:00:00 16,6 10,9 4 2 - - SE 1014,7 30
20.07.2018 07:00:00 15,1 9,5 7 4 7 4 SE 1015,2 20
20.07.2018 06:00:00 13,5 8,5 4 2 7 4 S 1016,0 13
20.07.2018 05:00:00 13,9 8,2 4 2 - - SE 1016,1 15
20.07.2018 04:00:00 14,6 8,0 7 4 7 4 ESE 1016,2 25
20.07.2018 03:00:00 15,3 8,0 4 2 11 6 E 1016,6 25
20.07.2018 02:00:00 15,3 7,7 4 2 - - E 1017,1 28
20.07.2018 01:00:00 16,4 7,7 4 2 11 6 - 1017,4 30
20.07.2018 00:00:00 17,8 7,8 0 0 7 4 N 1017,0 35
19.07.2018 23:00:00 17,8 7,5 0 0 - - N 1017,0 40
19.07.2018 22:00:00 19,6 7,6 4 2 11 6 NNE 1016,7 40
19.07.2018 21:00:00 22,0 8,8 4 2 14 8 N 1016,0 26
19.07.2018 20:00:00 23,5 9,4 7 4 - - N 1015,6 30
19.07.2018 19:00:00 24,3 9,0 7 4 18 10 NNE 1015,5 29
19.07.2018 18:00:00 24,3 9,7 11 6 14 8 N 1015,9 26
19.07.2018 17:00:00 23,6 9,4 7 4 - - NNW 1016,5 30
19.07.2018 16:00:00 23,5 9,1 4 2 14 8 - 1016,7 27
19.07.2018 15:00:00 23,2 8,8 4 2 22 12 NNW 1017,0 30
19.07.2018 14:00:00 23,7 9,3 7 4 - - - 1017,1 29
19.07.2018 13:00:00 23,0 9,5 7 4 18 10 N 1017,5 30
19.07.2018 12:00:00 21,9 9,6 7 4 11 6 E 1018,0 30
19.07.2018 11:00:00 20,6 9,9 4 2 - - NNW 1018,3 30
19.07.2018 10:00:00 20,2 11,7 7 4 14 8 - 1018,5 35
19.07.2018 09:00:00 19,5 11,8 7 4 14 8 S 1018,3 35
19.07.2018 08:00:00 17,5 11,4 4 2 - - NW 1018,7 35
19.07.2018 07:00:00 15,3 9,2 11 6 14 8 SSE 1018,7 35
19.07.2018 06:00:00 14,3 8,3 4 2 18 10 S 1018,9 40
19.07.2018 05:00:00 11,9 6,5 4 2 - - SE 1019,6 30
19.07.2018 04:00:00 12,7 6,7 4 2 4 2 SE 1019,7 25
19.07.2018 03:00:00 12,7 6,4 4 2 4 2 SSW 1019,8 35
19.07.2018 02:00:00 14,2 6,5 4 2 - - SSW 1019,8 40
19.07.2018 01:00:00 15,4 6,7 4 2 4 2 WSW 1019,4 40
19.07.2018 00:00:00 16,0 6,4 4 2 4 2 E 1019,1 45
18.07.2018 23:00:00 16,2 6,0 4 2 - - ESE 1018,9 45
18.07.2018 22:00:00 17,9 6,8 0 0 7 4 N 1018,3 45
18.07.2018 21:00:00 20,3 7,8 4 2 14 8 NNE 1017,7 40
18.07.2018 20:00:00 22,2 8,1 7 4 - - N 1017,3 35
18.07.2018 19:00:00 21,3 7,1 4 2 14 8 NNE 1017,5 40
18.07.2018 18:00:00 22,5 7,6 11 6 18 10 NNW 1017,5 30
18.07.2018 17:00:00 22,5 8,2 4 2 - - - 1017,8 28
18.07.2018 16:00:00 21,6 7,5 7 4 18 10 W 1018,2 35
18.07.2018 15:00:00 21,5 8,6 7 4 22 12 NW 1018,2 30
18.07.2018 14:00:00 21,5 8,7 11 6 - - NNW 1018,3 35
18.07.2018 13:00:00 20,2 8,4 7 4 25 14 WNW 1018,7 35
18.07.2018 12:00:00 20,3 7,4 7 4 22 12 W 1018,8 35
18.07.2018 11:00:00 19,5 8,6 7 4 - - NNW 1019,0 30
18.07.2018 10:00:00 18,6 10,2 4 2 11 6 NW 1019,2 35
18.07.2018 09:00:00 18,2 11,9 4 2 14 8 WNW 1018,9 40
18.07.2018 08:00:00 14,6 10,5 14 8 - - SSE 1019,2 35
18.07.2018 07:00:00 12,1 8,1 18 10 22 12 SSE 1019,6 40
18.07.2018 06:00:00 10,4 6,4 7 4 11 6 S 1020,0 45
18.07.2018 05:00:00 10,5 6,5 11 6 - - SSE 1019,9 45
18.07.2018 04:00:00 10,6 6,7 11 6 14 8 SSE 1019,9 35
18.07.2018 03:00:00 10,9 6,9 11 6 14 8 SSE 1019,8 45
18.07.2018 02:00:00 12,5 7,8 7 4 - - ESE 1019,6 35
18.07.2018 01:00:00 13,3 8,5 4 2 7 4 E 1019,5 40
18.07.2018 00:00:00 13,8 8,4 4 2 4 2 E 1019,3 30
17.07.2018 23:00:00 14,9 8,9 0 0 - - N 1018,8 35
17.07.2018 22:00:00 16,7 10,2 4 2 11 6 W 1017,9 45
17.07.2018 21:00:00 19,2 12,3 7 4 14 8 WNW 1016,9 40
17.07.2018 20:00:00 19,9 13,8 4 2 - - W 1016,4 30
17.07.2018 19:00:00 18,7 12,9 7 4 14 8 WSW 1016,3 30
17.07.2018 18:00:00 16,5 9,9 11 6 40 21 SE 1016,8 27
17.07.2018 17:00:00 20,3 11,8 7 4 - - WSW 1016,2 35
17.07.2018 16:00:00 23,2 11,2 11 6 29 16 WNW 1015,3 29
17.07.2018 15:00:00 22,9 10,3 14 8 29 16 W 1015,5 30
17.07.2018 14:00:00 22,3 10,5 11 6 - - WNW 1015,8 29
17.07.2018 13:00:00 22,5 10,5 11 6 22 12 WNW 1015,8 30
17.07.2018 12:00:00 20,9 10,3 11 6 29 16 WNW 1016,0 27
17.07.2018 11:00:00 21,0 10,4 11 6 - - W 1015,5 30
17.07.2018 10:00:00 19,3 10,4 7 4 14 8 NW 1015,6 40
17.07.2018 09:00:00 17,7 10,4 7 4 11 6 WNW 1015,6 30

tt = Température de l'air
td = dewpoint
ff = Vitesse du vent
fx = gusts
dd = Direction du vent
ppp = reduced air pressure
vv = visibility

stations d'obs. à proximité